Weather History for Columbia Airport, CA

Change the Weather History Date:

Friday, May 9, 2014

  Actual Average (KMOD) Record (KMOD)
Temperature  
Mean Temperature 58 °F -  
Max Temperature 68 °F 81 °F 97 °F (2001)
Min Temperature 46 °F 54 °F 41 °F (1933)
Degree Days  
Heating Degree Days 7 1  
Month to date heating degree days 16  
Since 1 July heating degree days 2150  
Cooling Degree Days 0 4  
Month to date cooling degree days 31  
Year to date cooling degree days 75  
Growing Degree Days 8 (Base 50)    
Moisture  
Dew Point 47 °F    
Average Humidity 68    
Maximum Humidity 100    
Minimum Humidity 40    
Precipitation  
Precipitation 0.00 in 0.02 in 0.26 in (1954)
Month to date precipitation 0.22  
Year to date precipitation 8.22  
Since 1 July precipitation 12.58  
Snow  
Snow 0.00 in - - ()
Month to date snowfall  
Since 1 July snowfall  
Snow Depth -    
Sea Level Pressure  
Sea Level Pressure 30.10 in    
Wind  
Wind Speed 3 mph (West)    
Max Wind Speed 9 mph    
Max Gust Speed -    
Visibility 10 miles    
Events      
T = Trace of Precipitation, MM = Missing Value Source: NWS Daily Summary

Daily Weather History Graph

Daily Weather History Graph

Search for Another Location

Airport:

Trip Planner

Search our weather history database for the weather conditions in past years. The results will help you decide how hot, cold, wet, or windy it might be!

Date:

Astronomy

May. 09, 2014 Rise Set
Actual Time 5:56 AM PDT 8:00 PM PDT
Civil Twilight 5:27 AM PDT 8:29 PM PDT
Nautical Twilight 4:52 AM PDT 9:04 PM PDT
Astronomical Twilight 4:14 AM PDT 9:43 PM PDT
Moon 3:07 PM PDT (5/9) 2:56 AM PDT (5/9)
Length of Visible Light 15h 01m
Length of Day
14h 03m
Waxing Gibbous, 74% of the Moon is Illuminated
May 9
Waxing Gibbous
May 14
Full
May 21
Last Quarter
May 28
New
Jun 5
First Quarter

Hourly Weather History & Observations

Time (PDT) Temp. Windchill Dew Point Humidity Pressure Visibility Wind Dir Wind Speed Gust Speed Precip Events Conditions
12:15 AM 55.4 °F - 51.8 °F 88% 30.09 in 10.0 mi Calm Calm - N/A   Overcast
12:35 AM 55.4 °F - 53.6 °F 94% 30.09 in 10.0 mi Calm Calm - N/A   Overcast
12:55 AM 55.4 °F - 53.6 °F 94% 30.09 in 10.0 mi Calm Calm - N/A   Overcast
1:15 AM 55.4 °F - 53.6 °F 94% 30.09 in 10.0 mi Calm Calm - N/A   Overcast
1:35 AM 55.4 °F - 53.6 °F 94% 30.08 in 10.0 mi Calm Calm - N/A   Overcast
1:55 AM 55.4 °F - 53.6 °F 94% 30.09 in 10.0 mi Calm Calm - N/A   Overcast
2:15 AM 55.4 °F - 53.6 °F 94% 30.08 in 10.0 mi Calm Calm - N/A   Overcast
2:35 AM 55.4 °F - 53.6 °F 94% 30.08 in 10.0 mi West 3.5 mph - N/A   Overcast
2:55 AM 55.4 °F - 53.6 °F 94% 30.08 in 10.0 mi Calm Calm - N/A   Overcast
3:15 AM 55.4 °F - 53.6 °F 94% 30.09 in 10.0 mi Calm Calm - N/A   Overcast
3:35 AM 55.4 °F - 53.6 °F 94% 30.09 in 10.0 mi Calm Calm - N/A   Overcast
3:55 AM 55.4 °F - 53.6 °F 94% 30.09 in 10.0 mi WSW 3.5 mph - N/A   Overcast
4:15 AM 55.4 °F - 53.6 °F 94% 30.09 in 10.0 mi WSW 3.5 mph - N/A   Overcast
4:35 AM 53.6 °F - 53.6 °F 100% 30.09 in 10.0 mi WSW 3.5 mph - N/A   Overcast
4:55 AM 53.6 °F - 53.6 °F 100% 30.09 in 10.0 mi West 3.5 mph - N/A   Overcast
5:15 AM 53.6 °F - 51.8 °F 94% 30.09 in 10.0 mi Calm Calm - N/A   Overcast
5:35 AM 53.6 °F - 51.8 °F 94% 30.10 in 7.0 mi WNW 5.8 mph - N/A   Overcast
5:55 AM 53.6 °F - 51.8 °F 94% 30.10 in 1.8 mi West 5.8 mph - N/A   Overcast
6:15 AM 53.6 °F - 51.8 °F 94% 30.11 in 1.8 mi WNW 5.8 mph - N/A   Overcast
6:35 AM 51.8 °F - 51.8 °F 100% 30.11 in 10.0 mi WNW 3.5 mph - N/A   Overcast
6:55 AM 53.6 °F - 51.8 °F 94% 30.11 in 10.0 mi West 3.5 mph - N/A   Overcast
7:15 AM 53.6 °F - 51.8 °F 94% 30.11 in 10.0 mi WNW 3.5 mph - N/A   Overcast
7:35 AM 53.6 °F - 51.8 °F 94% 30.11 in 10.0 mi Calm Calm - N/A   Overcast
7:55 AM 53.6 °F - 50.0 °F 88% 30.12 in 10.0 mi NW 4.6 mph - N/A   Mostly Cloudy
8:15 AM 55.4 °F - 50.0 °F 82% 30.12 in 10.0 mi North 4.6 mph - N/A   Clear
8:55 AM 59.0 °F - 50.0 °F 72% 30.11 in 10.0 mi West 5.8 mph - N/A   Scattered Clouds
9:15 AM 59.0 °F - 50.0 °F 72% 30.11 in 10.0 mi WSW 5.8 mph - N/A   Partly Cloudy
9:35 AM 62.6 °F - 50.0 °F 63% 30.11 in 10.0 mi SW 4.6 mph - N/A   Partly Cloudy
9:55 AM 62.6 °F - 48.2 °F 59% 30.11 in 10.0 mi West 5.8 mph - N/A   Partly Cloudy
10:15 AM 62.6 °F - 48.2 °F 59% 30.12 in 10.0 mi West 5.8 mph - N/A   Partly Cloudy
10:35 AM 64.4 °F - 46.4 °F 52% 30.12 in 10.0 mi West 6.9 mph - N/A   Clear
10:55 AM 64.4 °F - 46.4 °F 52% 30.12 in 10.0 mi WSW 4.6 mph - N/A   Clear
11:15 AM 64.4 °F - 46.4 °F 52% 30.12 in 10.0 mi West 9.2 mph - N/A   Clear
11:35 AM 64.4 °F - 46.4 °F 52% 30.12 in 10.0 mi WSW 6.9 mph - N/A   Partly Cloudy
11:55 AM 66.2 °F - 46.4 °F 49% 30.12 in 10.0 mi West 6.9 mph - N/A   Partly Cloudy
12:15 PM 66.2 °F - 48.2 °F 52% 30.11 in 10.0 mi WSW 5.8 mph - N/A   Partly Cloudy
12:35 PM 66.2 °F - 48.2 °F 52% 30.12 in 10.0 mi West 5.8 mph - N/A   Partly Cloudy
12:55 PM 66.2 °F - 46.4 °F 49% 30.11 in 10.0 mi WSW 6.9 mph - N/A   Scattered Clouds
1:15 PM 68.0 °F - 46.4 °F 46% 30.11 in 10.0 mi SW 8.1 mph - N/A   Scattered Clouds
1:35 PM 68.0 °F - 46.4 °F 46% 30.11 in 10.0 mi SSW 8.1 mph - N/A   Partly Cloudy
1:55 PM 68.0 °F - 46.4 °F 46% 30.10 in 10.0 mi SW 4.6 mph - N/A   Partly Cloudy
2:15 PM 68.0 °F - 46.4 °F 46% 30.10 in 10.0 mi South 6.9 mph - N/A   Partly Cloudy
2:55 PM 68.0 °F - 44.6 °F 43% 30.09 in 10.0 mi SSW 9.2 mph - N/A   Clear
3:15 PM 68.0 °F - 46.4 °F 46% 30.09 in 10.0 mi SW 8.1 mph - N/A   Clear
3:35 PM 68.0 °F - 44.6 °F 43% 30.08 in 10.0 mi SSW 9.2 mph - N/A   Clear
3:55 PM 68.0 °F - 44.6 °F 43% 30.07 in 10.0 mi SSW 6.9 mph - N/A   Clear
4:15 PM 68.0 °F - 44.6 °F 43% 30.07 in 10.0 mi WSW 5.8 mph - N/A   Clear
4:35 PM 68.0 °F - 44.6 °F 43% 30.07 in 10.0 mi WSW 5.8 mph - N/A   Clear
4:55 PM 66.2 °F - 42.8 °F 43% 30.07 in 10.0 mi Calm Calm - N/A   Clear
5:15 PM 66.2 °F - 42.8 °F 43% 30.07 in 10.0 mi WSW 6.9 mph - N/A   Clear
5:35 PM 66.2 °F - 41.0 °F 40% 30.07 in 10.0 mi WSW 8.1 mph - N/A   Clear
5:55 PM 66.2 °F - 41.0 °F 40% 30.07 in 10.0 mi WSW 8.1 mph - N/A   Clear
6:15 PM 64.4 °F - 39.2 °F 40% 30.07 in 10.0 mi WSW 5.8 mph - N/A   Clear
6:35 PM 62.6 °F - 39.2 °F 42% 30.07 in 10.0 mi WSW 5.8 mph - N/A   Clear
6:55 PM 62.6 °F - 39.2 °F 42% 30.07 in 10.0 mi West 4.6 mph - N/A   Clear
7:15 PM 60.8 °F - 39.2 °F 45% 30.08 in 10.0 mi WSW 4.6 mph - N/A   Clear
7:35 PM 59.0 °F - 39.2 °F 48% 30.08 in 10.0 mi WSW 3.5 mph - N/A   Clear
7:55 PM 57.2 °F - 41.0 °F 55% 30.08 in 10.0 mi WSW 3.5 mph - N/A   Clear
8:15 PM 55.4 °F - 41.0 °F 58% 30.08 in 10.0 mi WSW 3.5 mph - N/A   Clear
8:35 PM 55.4 °F - 42.8 °F 63% 30.09 in 10.0 mi West 3.5 mph - N/A   Clear
8:55 PM 55.4 °F - 44.6 °F 67% 30.09 in 10.0 mi West 5.8 mph - N/A   Clear
9:15 PM 53.6 °F - 44.6 °F 72% 30.10 in 10.0 mi West 5.8 mph - N/A   Clear
9:35 PM 53.6 °F - 44.6 °F 72% 30.10 in 10.0 mi West 6.9 mph - N/A   Clear
9:55 PM 53.6 °F - 41.0 °F 62% 30.10 in 10.0 mi NW 3.5 mph - N/A   Clear
10:15 PM 51.8 °F - 41.0 °F 67% 30.10 in 10.0 mi WNW 3.5 mph - N/A   Clear
10:35 PM 50.0 °F - 39.2 °F 66% 30.10 in 10.0 mi Calm Calm - N/A   Clear
10:55 PM 50.0 °F - 39.2 °F 66% 30.10 in 10.0 mi NW 3.5 mph - N/A   Clear
11:15 PM 50.0 °F - 41.0 °F 71% 30.10 in 10.0 mi North 3.5 mph - N/A   Clear
11:35 PM 48.2 °F - 41.0 °F 76% 30.10 in 10.0 mi Calm Calm - N/A   Clear
11:55 PM 46.4 °F 45.2 °F 41.0 °F 81% 30.10 in 10.0 mi NE 3.5 mph - N/A   Clear